When you browse on this site, cookies collect data to enhance your experience and personalize the content and advertising you see.
Visit our Privacy Policy to learn more. By continuing to use the site, you agree to this use of cookies and data.
  • En España
  • Lista de países
  • Para 7 días
  • Temperatura del agua
  • El tiempo en el mapa
  • Informadores
  • user-avatar
    Iniciar sesión

    Tiempo cada hora Mamou

    Hoy, 22 Febrero, Sábado

    Tiempo Temperatura Precipitaciones Viento Presión Humedad
    00:00 +27°C° 0 mm 3 mps 732 mmHg 19%
    01:00 +26°C° 0 mm 2 mps 732 mmHg 20%
    02:00 +25°C° 0 mm 2 mps 732 mmHg 20%
    03:00 +25°C° 0 mm 2 mps 732 mmHg 19%
    04:00 +24°C° 0 mm 3 mps 732 mmHg 19%
    05:00 +24°C° 0 mm 3 mps 732 mmHg 20%
    06:00 +24°C° 0 mm 3 mps 733 mmHg 21%
    07:00 +24°C° 0 mm 2 mps 734 mmHg 22%
    08:00 +27°C° 0 mm 3 mps 734 mmHg 19%
    09:00 +30°C° 0 mm 3 mps 735 mmHg 17%
    10:00 +34°C° 0 mm 3 mps 735 mmHg 14%
    11:00 +36°C° 0 mm 4 mps 734 mmHg 13%
    12:00 +40°C° 0 mm 4 mps 733 mmHg 11%
    13:00 +41°C° 0 mm 4 mps 733 mmHg 10%
    14:00 +42°C° 0 mm 4 mps 732 mmHg 10%
    15:00 +42°C° 0 mm 5 mps 732 mmHg 9%
    16:00 +43°C° 0 mm 5 mps 731 mmHg 9%
    17:00 +40°C° 0 mm 4 mps 731 mmHg 11%
    18:00 +37°C° 0 mm 4 mps 732 mmHg 12%
    19:00 +35°C° 0 mm 4 mps 732 mmHg 14%
    20:00 +33°C° 0 mm 4 mps 733 mmHg 13%
    21:00 +32°C° 0 mm 4 mps 733 mmHg 13%
    22:00 +30°C° 0 mm 4 mps 734 mmHg 12%
    23:00 +29°C° 0 mm 4 mps 733 mmHg 13%

    Mañana, 23 Febrero, Domingo

    Tiempo Temperatura Precipitaciones Viento Presión Humedad
    00:00 +27°C° 0 mm 3 mps 733 mmHg 13%
    01:00 +26°C° 0 mm 3 mps 733 mmHg 14%
    02:00 +26°C° 0 mm 3 mps 733 mmHg 16%
    03:00 +25°C° 0 mm 3 mps 733 mmHg 17%
    04:00 +25°C° 0 mm 3 mps 733 mmHg 19%
    05:00 +24°C° 0 mm 3 mps 733 mmHg 22%
    06:00 +24°C° 0 mm 2 mps 734 mmHg 24%
    07:00 +23°C° 0 mm 2 mps 734 mmHg 27%
    08:00 +26°C° 0 mm 3 mps 735 mmHg 23%
    09:00 +29°C° 0 mm 3 mps 736 mmHg 18%
    10:00 +33°C° 0 mm 4 mps 736 mmHg 14%
    11:00 +35°C° 0 mm 4 mps 735 mmHg 12%
    12:00 +38°C° 0 mm 4 mps 734 mmHg 9%
    13:00 +41°C° 0 mm 4 mps 733 mmHg 7%
    14:00 +42°C° 0 mm 4 mps 733 mmHg 7%
    15:00 +42°C° 0 mm 4 mps 732 mmHg 7%
    16:00 +43°C° 0 mm 4 mps 732 mmHg 7%
    17:00 +40°C° 0 mm 4 mps 732 mmHg 9%
    18:00 +37°C° 0 mm 4 mps 732 mmHg 10%
    19:00 +34°C° 0 mm 4 mps 732 mmHg 12%
    20:00 +33°C° 0 mm 4 mps 733 mmHg 12%
    21:00 +30°C° 0 mm 4 mps 733 mmHg 12%
    22:00 +29°C° 0 mm 4 mps 734 mmHg 13%
    23:00 +28°C° 0 mm 4 mps 734 mmHg 14%

    Pasado mañana, 24 Febrero, Lunes

    Tiempo Temperatura Precipitaciones Viento Presión Humedad
    00:00 +27°C° 0 mm 4 mps 734 mmHg 15%
    01:00 +26°C° 0 mm 3 mps 734 mmHg 16%
    02:00 +25°C° 0 mm 4 mps 734 mmHg 18%
    03:00 +25°C° 0 mm 4 mps 733 mmHg 20%
    04:00 +23°C° 0 mm 4 mps 733 mmHg 22%
    05:00 +23°C° 0 mm 4 mps 734 mmHg 24%
    06:00 +24°C° 0 mm 3 mps 734 mmHg 26%
    07:00 +22°C° 0 mm 3 mps 735 mmHg 27%
    08:00 +26°C° 0 mm 4 mps 735 mmHg 24%
    09:00 +29°C° 0 mm 4 mps 736 mmHg 20%
    10:00 +33°C° 0 mm 5 mps 736 mmHg 16%
    11:00 +34°C° 0 mm 5 mps 735 mmHg 15%
    12:00 +36°C° 0 mm 5 mps 734 mmHg 13%
    13:00 +38°C° 0 mm 4 mps 733 mmHg 11%
    14:00 +38°C° 0 mm 4 mps 733 mmHg 11%
    15:00 +40°C° 0 mm 4 mps 732 mmHg 10%
    16:00 +40°C° 0 mm 4 mps 731 mmHg 10%
    17:00 +37°C° 0 mm 4 mps 732 mmHg 12%
    18:00 +35°C° 0 mm 4 mps 732 mmHg 14%
    19:00 +32°C° 0 mm 4 mps 732 mmHg 15%
    20:00 +30°C° 0 mm 4 mps 733 mmHg 17%
    21:00 +28°C° 0 mm 4 mps 733 mmHg 19%
    22:00 +27°C° 0 mm 5 mps 734 mmHg 21%
    23:00 +26°C° 0 mm 4 mps 734 mmHg 21%

    25 Febrero, Martes

    Tiempo Temperatura Precipitaciones Viento Presión Humedad
    00:00 +25°C° 0 mm 4 mps 733 mmHg 22%
    01:00 +23°C° 0 mm 4 mps 733 mmHg 22%
    02:00 +22°C° 0 mm 3 mps 733 mmHg 25%
    03:00 +22°C° 0 mm 3 mps 733 mmHg 28%
    04:00 +21°C° 0 mm 3 mps 733 mmHg 30%
    05:00 +21°C° 0 mm 3 mps 734 mmHg 31%
    06:00 +20°C° 0 mm 3 mps 734 mmHg 32%
    07:00 +20°C° 0 mm 3 mps 734 mmHg 32%
    08:00 +24°C° 0 mm 3 mps 735 mmHg 26%
    09:00 +26°C° 0 mm 3 mps 735 mmHg 21%
    10:00 +29°C° 0 mm 3 mps 736 mmHg 15%
    11:00 +31°C° 0 mm 3 mps 735 mmHg 13%
    12:00 +35°C° 0 mm 3 mps 734 mmHg 11%
    13:00 +37°C° 0 mm 3 mps 733 mmHg 9%
    14:00 +37°C° 0 mm 3 mps 733 mmHg 9%
    15:00 +38°C° 0 mm 3 mps 732 mmHg 8%
    16:00 +38°C° 0 mm 3 mps 731 mmHg 8%
    17:00 +36°C° 0 mm 3 mps 732 mmHg 9%
    18:00 +33°C° 0 mm 3 mps 732 mmHg 11%
    19:00 +30°C° 0 mm 3 mps 732 mmHg 12%
    20:00 +29°C° 0 mm 4 mps 732 mmHg 15%
    21:00 +27°C° 0 mm 4 mps 733 mmHg 18%
    22:00 +26°C° 0 mm 4 mps 733 mmHg 20%
    23:00 +25°C° 0 mm 4 mps 733 mmHg 22%

    26 Febrero, Miércoles

    Tiempo Temperatura Precipitaciones Viento Presión Humedad
    00:00 +22°C° 0 mm 3 mps 733 mmHg 24%
    01:00 +21°C° 0 mm 3 mps 733 mmHg 26%
    02:00 +21°C° 0 mm 3 mps 733 mmHg 27%
    03:00 +20°C° 0 mm 2 mps 732 mmHg 27%
    04:00 +19°C° 0 mm 2 mps 732 mmHg 28%
    05:00 +19°C° 0 mm 2 mps 733 mmHg 29%
    06:00 +19°C° 0 mm 2 mps 733 mmHg 31%
    07:00 +19°C° 0 mm 2 mps 734 mmHg 33%
    08:00 +23°C° 0 mm 2 mps 734 mmHg 27%
    09:00 +26°C° 0 mm 2 mps 734 mmHg 21%
    10:00 +29°C° 0 mm 2 mps 735 mmHg 16%
    11:00 +32°C° 0 mm 2 mps 734 mmHg 13%
    12:00 +35°C° 0 mm 1 mps 733 mmHg 11%
    13:00 +39°C° 0 mm 1 mps 733 mmHg 8%
    14:00 +39°C° 0 mm 1 mps 732 mmHg 8%
    15:00 +39°C° 0 mm 1 mps 731 mmHg 8%
    16:00 +40°C° 0 mm 1 mps 730 mmHg 8%
    17:00 +36°C° 0 mm 1 mps 730 mmHg 9%
    18:00 +33°C° 0 mm 1 mps 731 mmHg 11%
    19:00 +31°C° 0 mm 1 mps 731 mmHg 13%
    20:00 +30°C° 0 mm 2 mps 731 mmHg 14%
    21:00 +29°C° 0 mm 2 mps 732 mmHg 14%
    22:00 +28°C° 0 mm 3 mps 732 mmHg 15%
    23:00 +27°C° 0 mm 3 mps 732 mmHg 17%

    27 Febrero, Jueves

    Tiempo Temperatura Precipitaciones Viento Presión Humedad
    00:00 +26°C° 0 mm 3 mps 732 mmHg 19%
    01:00 +24°C° 0 mm 2 mps 732 mmHg 22%
    02:00 +24°C° 0 mm 2 mps 732 mmHg 22%
    03:00 +23°C° 0 mm 2 mps 732 mmHg 23%
    04:00 +21°C° 0 mm 2 mps 732 mmHg 24%
    05:00 +21°C° 0 mm 2 mps 732 mmHg 23%
    06:00 +21°C° 0 mm 2 mps 733 mmHg 23%
    07:00 +21°C° 0 mm 2 mps 733 mmHg 22%
    08:00 +25°C° 0 mm 2 mps 734 mmHg 19%
    09:00 +29°C° 0 mm 2 mps 734 mmHg 15%
    10:00 +32°C° 0 mm 2 mps 735 mmHg 12%
    11:00 +36°C° 0 mm 2 mps 734 mmHg 11%
    12:00 +38°C° 0 mm 2 mps 734 mmHg 9%
    13:00 +41°C° 0 mm 1 mps 733 mmHg 8%
    14:00 +41°C° 0 mm 1 mps 732 mmHg 8%
    15:00 +41°C° 0 mm 1 mps 731 mmHg 8%
    16:00 +42°C° 0 mm 1 mps 731 mmHg 7%
    17:00 +39°C° 0 mm 1 mps 731 mmHg 9%
    18:00 +36°C° 0 mm 2 mps 731 mmHg 10%
    19:00 +34°C° 0 mm 2 mps 731 mmHg 12%
    20:00 +31°C° 0 mm 2 mps 732 mmHg 13%
    21:00 +30°C° 0 mm 2 mps 732 mmHg 14%
    22:00 +29°C° 0 mm 3 mps 733 mmHg 15%
    23:00 +28°C° 0 mm 3 mps 732 mmHg 16%
    Mostrar más